Address 0x267363a6af9dec271e990cf8d855ffcb07db9738

Overview

Balance:
352.257697611140424033 CLV

CLV Value:
$29.52 (@ $0.08/CLV)
Txn Hash Method
Block
From
To
Value [Txn Fee]
0x1d260838fe7bc8a7e52ea484c5c0365b140ca15d51f78a6aaa95fd9f12291b1a0x41ff1bcc18735372022-09-28 11:39:182 days 4 hrs ago0x267363a6af9dec271e990cf8d855ffcb07db9738OUT 0xf7ba155556e2cd4dfe3fe26e506a14d2f4b976130 CLV0.00105449
0x28d0ff8e8b25765fb3595d9d194a5b58bdef911a218cf95185af1aa3f4b62ef6Approve18735342022-09-28 11:38:422 days 4 hrs ago0x267363a6af9dec271e990cf8d855ffcb07db9738OUT 0xbea4928632e482a0a1241b38f596a311ad7b98b10 CLV0.00044525
0xea5bee04c3ec0ba903e0e2d1d5982a39b972e33b1686dc7da4e73feb47250228Withdraw18735262022-09-28 11:37:062 days 4 hrs ago0x267363a6af9dec271e990cf8d855ffcb07db9738OUT 0x67dc6e39a46efcbd9ec7bb8d490eff6df9c9b0470 CLV0.0090174
0xf647fffe1b8bd380c0ad9e1a7d5aeb4e819d38e38c6e942d5552a6b389ec0f0fDeposit18052072022-09-18 19:53:3011 days 20 hrs ago0x267363a6af9dec271e990cf8d855ffcb07db9738OUT 0x67dc6e39a46efcbd9ec7bb8d490eff6df9c9b0470 CLV0.0073045
0xec018f0288c23b5ebe87af755d56e24e1e9458260b792d71c2b9023d074ec1e7Add Liquidity ET...18051992022-09-18 19:51:5411 days 20 hrs ago0x267363a6af9dec271e990cf8d855ffcb07db9738OUT 0x5d91eaee3a8b2a73b0505c9585cbfcd81d972d7e2,352.087659197299282 CLV0.0150494
0x030e4a5e789b0878dec755d685930181f349deb1e7e655369d1409d403716501Withdraw18051922022-09-18 19:50:3011 days 20 hrs ago0x267363a6af9dec271e990cf8d855ffcb07db9738OUT 0x67dc6e39a46efcbd9ec7bb8d490eff6df9c9b0470 CLV0.0090174
0x5eaec3468f1d5a111366b992290d85c1ff3f14c6fe034f98508b89f7d1e6dcbaWithdraw18051712022-09-18 19:46:1811 days 20 hrs ago0x267363a6af9dec271e990cf8d855ffcb07db9738OUT 0x03bfdda91e624a2a0238b728635a2f592a3072d70 CLV0.00062867
0x9769ba0ed50f7fbf1b73b85f4b240aaefa80bce844c06333dfccb2038177d471Approve18051652022-09-18 19:45:0611 days 20 hrs ago0x267363a6af9dec271e990cf8d855ffcb07db9738OUT 0x03bfdda91e624a2a0238b728635a2f592a3072d70 CLV0.00044503
0x5dc09b4c272769e308acf44c45c2ac597b94534f4417e0a22f06c7050ed2672aWithdraw All18051602022-09-18 19:44:0611 days 20 hrs ago0x267363a6af9dec271e990cf8d855ffcb07db9738OUT 0x18d1a3f485d5de49654051090deae9aa550764d10 CLV0.0246529
0x0b4f4590d2d7278b0a9aa213837c2fe14389cd1267a23c16a17cf0ff3f72a8bbDeposit17639522022-09-12 22:18:1217 days 17 hrs ago0x267363a6af9dec271e990cf8d855ffcb07db9738OUT 0x18d1a3f485d5de49654051090deae9aa550764d10 CLV0.0231956
0x468ba4f30b58783d0352cf3690556676fd25d8596cb0ccd6801622e1512af5d6Deposit17639492022-09-12 22:17:3617 days 17 hrs ago0x267363a6af9dec271e990cf8d855ffcb07db9738OUT 0x03bfdda91e624a2a0238b728635a2f592a3072d70 CLV0.00077681
0xba3ece08a310a3e085bfbd11510cb1a53fd3f3cfc4dc25d4edf314b8e24f3e3fWithdraw17639462022-09-12 22:17:0017 days 17 hrs ago0x267363a6af9dec271e990cf8d855ffcb07db9738OUT 0x67dc6e39a46efcbd9ec7bb8d490eff6df9c9b0470 CLV0.0109374
0xbd2355fe2d0d6974c4a613d933321491067020425d2ad09ba2f46cfa5d9d5967Deposit17073972022-09-04 14:16:4826 days 1 hr ago0x267363a6af9dec271e990cf8d855ffcb07db9738OUT 0x18d1a3f485d5de49654051090deae9aa550764d10 CLV0.0231956
0x2f41a3ea9087fe97f7b33e893a01f1a84410832507045870c8f8a252e2277bc2Deposit17073932022-09-04 14:16:0026 days 1 hr ago0x267363a6af9dec271e990cf8d855ffcb07db9738OUT 0x03bfdda91e624a2a0238b728635a2f592a3072d70 CLV0.00077681
0x0ec51292084807bb4c22a1cf7b6ec3a1064933e5d317a3cfb0b45bfc8330f09bWithdraw17073902022-09-04 14:15:2426 days 1 hr ago0x267363a6af9dec271e990cf8d855ffcb07db9738OUT 0x67dc6e39a46efcbd9ec7bb8d490eff6df9c9b0470 CLV0.0090174
0xc98b566cd2628ab13f8fcb2108838cd972c00406eaa323f95c192dc9430e3aadSwap Exact Token...17073842022-09-04 14:14:0626 days 1 hr ago0x267363a6af9dec271e990cf8d855ffcb07db9738OUT 0x5d91eaee3a8b2a73b0505c9585cbfcd81d972d7e0 CLV0.0091748
0x1b135056f31f8024fc0954a7b669b76425ddd620d33709a4415716e1bc989556Deposit16571362022-08-28 6:07:1233 days 9 hrs ago0x267363a6af9dec271e990cf8d855ffcb07db9738OUT 0x18d1a3f485d5de49654051090deae9aa550764d10 CLV0.0231932
0xa51198b0ec24bfae4d71b68b6b660c03f693b4ffe2ed6dca19058566df8eef7dDeposit16571302022-08-28 6:06:0033 days 9 hrs ago0x267363a6af9dec271e990cf8d855ffcb07db9738OUT 0x03bfdda91e624a2a0238b728635a2f592a3072d70 CLV0.00096857
0x71ea291d82854ec545b8c73faf8482e50b6fee0acc959bfd15b6f8856a4f9be9Withdraw16571262022-08-28 6:05:0033 days 9 hrs ago0x267363a6af9dec271e990cf8d855ffcb07db9738OUT 0x67dc6e39a46efcbd9ec7bb8d490eff6df9c9b0470 CLV0.0109374
0x7366aa091deff429bd081dcf0712412547fcce917abd43a1526abfd7a8b4cb5aDeposit16551842022-08-27 23:13:4833 days 16 hrs ago0x267363a6af9dec271e990cf8d855ffcb07db9738OUT 0x18d1a3f485d5de49654051090deae9aa550764d10 CLV0.0251144
0xa44b016cc733bbfe2d62318f1d8be5d53b1086190a472026bec8058fb422d89cApprove16551812022-08-27 23:13:1233 days 16 hrs ago0x267363a6af9dec271e990cf8d855ffcb07db9738OUT 0x03bfdda91e624a2a0238b728635a2f592a3072d70 CLV0.00044503
0x2177409f3f6676650a944e048696fe87b7519d7f9b7c59ce063d30ad1cf91faeDeposit16551782022-08-27 23:12:1833 days 16 hrs ago0x267363a6af9dec271e990cf8d855ffcb07db9738OUT 0x03bfdda91e624a2a0238b728635a2f592a3072d70 CLV0.00077669
0xf83375b6d980fce086716f6eeb8bcfe401b8cf8dc655cfdaf4579b0b87819da3Approve16551712022-08-27 23:10:5433 days 16 hrs ago0x267363a6af9dec271e990cf8d855ffcb07db9738OUT 0xbea4928632e482a0a1241b38f596a311ad7b98b10 CLV0.00044525
0x9a7111c57f1d24de7ff6018e6729afeb2c19c842d7252c190c79e6618fd8c34aApprove16318842022-08-24 13:52:5437 days 2 hrs ago0x267363a6af9dec271e990cf8d855ffcb07db9738OUT 0x6d6ad95425fcf315c39fa6f3226471d4f16f27b30 CLV0.00044298
0x9eac9de7839e6e2b98d73b23dee847aa82b8c95a95bc246f07ac63ac91aab47dSwap Exact Token...16310782022-08-24 11:02:0637 days 4 hrs ago0x267363a6af9dec271e990cf8d855ffcb07db9738OUT 0x5d91eaee3a8b2a73b0505c9585cbfcd81d972d7e0 CLV0.011427
[ Download CSV Export 
Latest 5 internal transactions
Parent Txn Hash Block From To Value
0xa03840ecbb6666057fe53809fd24d888874d3719be99ecf90d5397e5d2e7f53518051432022-09-18 19:40:4211 days 20 hrs ago 0x72c218d92fb6c7fb6ae43739dfba0cc8ce62beae0x267363a6af9dec271e990cf8d855ffcb07db97382,441.2171 CLV
0x19ee413104214359293b1bd8d2209c3170a0c8b1942a8746ec17b3dd053e40d116186552022-08-22 15:33:1239 days 26 mins ago 0x5d91eaee3a8b2a73b0505c9585cbfcd81d972d7e0x267363a6af9dec271e990cf8d855ffcb07db973885.097055032424833611 CLV
0xea14c2581fafb0566564037411458bca19aaba76058d8e6384670cab3eeb04c616073792022-08-21 0:15:4840 days 15 hrs ago 0x5d91eaee3a8b2a73b0505c9585cbfcd81d972d7e0x267363a6af9dec271e990cf8d855ffcb07db97381 wei
0xee4188a8773ba66d43c72ec9a577bec83cc422dbc7bbf522d5bec6759756437516072342022-08-20 23:45:2440 days 16 hrs ago 0x72c218d92fb6c7fb6ae43739dfba0cc8ce62beae0x267363a6af9dec271e990cf8d855ffcb07db97382,014.2199 CLV
0xa94b0a161942b893552f05f01c45d5e2c5cf05447d10fa40e4425942302fbe6e15659302022-08-14 20:09:4846 days 19 hrs ago 0x72c218d92fb6c7fb6ae43739dfba0cc8ce62beae0x267363a6af9dec271e990cf8d855ffcb07db9738493 CLV
[ Download CSV Export 
Loading

Contract Name:
0

Compiler Version
0

Optimization Enabled:
0

Other Settings:
-NA-
Block Transaction Gas Used Reward
Age Block Fee Address BC Fee Address Voting Power Jailed Incoming
Block Uncle Number Difficulty Gas Used Reward
Loading
Make sure to use the "Vote Down" button for any spammy posts, and the "Vote Up" for interesting conversations.